TimeAKST,TemperatureF,Dew PointF,Humidity,Sea Level PressureIn,VisibilityMPH,Wind Direction,Wind SpeedMPH,Gust SpeedMPH,PrecipitationIn,Events,Conditions,WindDirDegrees,DateUTC
12:16 AM,-23.8,-9999,N/A,29.60,10.0,North,9.2,-,N/A,,Overcast,10,2014-01-10 09:16:00
12:36 AM,-22.0,-9999,N/A,29.60,10.0,North,9.2,-,N/A,,Scattered Clouds,350,2014-01-10 09:36:00
12:56 AM,-20.2,-9999,N/A,29.60,10.0,NNE,10.4,-,N/A,,Clear,20,2014-01-10 09:56:00
1:16 AM,-20.2,-9999,N/A,29.59,10.0,NNE,9.2,-,N/A,,Clear,20,2014-01-10 10:16:00
1:36 AM,-20.2,-29.2,63,29.59,10.0,North,9.2,-,N/A,,Clear,10,2014-01-10 10:36:00
1:56 AM,-18.4,-29.2,58,29.59,10.0,North,9.2,-,N/A,,Clear,10,2014-01-10 10:56:00
2:16 AM,-18.4,-27.4,63,29.60,10.0,NNE,8.1,-,N/A,,Clear,20,2014-01-10 11:16:00
2:36 AM,-18.4,-27.4,63,29.60,10.0,NNE,9.2,-,N/A,,Clear,30,2014-01-10 11:36:00
2:56 AM,-18.4,-27.4,63,29.60,10.0,NNE,6.9,-,N/A,,Clear,30,2014-01-10 11:56:00
3:16 AM,-16.6,-27.4,58,29.60,10.0,NNE,8.1,-,N/A,,Clear,20,2014-01-10 12:16:00
3:36 AM,-16.6,-25.6,64,29.60,10.0,NNE,8.1,-,N/A,,Clear,30,2014-01-10 12:36:00
3:56 AM,-13.0,-20.2,70,29.60,10.0,NNE,8.1,-,N/A,,Clear,30,2014-01-10 12:56:00
4:16 AM,-13.0,-23.8,59,29.59,10.0,NE,9.2,-,N/A,,Clear,40,2014-01-10 13:16:00
4:36 AM,-13.0,-23.8,59,29.60,10.0,NE,9.2,-,N/A,,Clear,40,2014-01-10 13:36:00
4:56 AM,-13.0,-23.8,59,29.60,10.0,NE,10.4,-,N/A,,Clear,50,2014-01-10 13:56:00
5:16 AM,-11.2,-20.2,64,29.60,10.0,NE,9.2,-,N/A,,Mostly Cloudy,40,2014-01-10 14:16:00
5:36 AM,-11.2,-22.0,59,29.60,10.0,NE,10.4,-,N/A,,Mostly Cloudy,40,2014-01-10 14:36:00
5:56 AM,-11.2,-20.2,64,29.59,10.0,ENE,10.4,-,N/A,,Partly Cloudy,60,2014-01-10 14:56:00
6:16 AM,-9.4,-16.6,71,29.59,10.0,ENE,15.0,-,N/A,,Mostly Cloudy,70,2014-01-10 15:16:00
6:36 AM,-7.6,-16.6,65,29.59,10.0,NE,11.5,-,N/A,,Overcast,50,2014-01-10 15:36:00
6:56 AM,-7.6,-16.6,65,29.59,10.0,ENE,10.4,-,N/A,,Overcast,60,2014-01-10 15:56:00
7:16 AM,-7.6,-18.4,59,29.59,10.0,ENE,9.2,-,N/A,,Overcast,60,2014-01-10 16:16:00
7:36 AM,-7.6,-16.6,65,29.59,10.0,NE,10.4,-,N/A,,Overcast,40,2014-01-10 16:36:00
7:56 AM,-5.8,-14.8,65,29.59,10.0,NE,9.2,-,N/A,,Overcast,40,2014-01-10 16:56:00
8:16 AM,-5.8,-14.8,65,29.58,10.0,NNE,9.2,-,N/A,,Overcast,30,2014-01-10 17:16:00
8:36 AM,-5.8,-14.8,65,29.58,9.0,NNE,13.8,-,N/A,,Overcast,30,2014-01-10 17:36:00
8:56 AM,-5.8,-14.8,65,29.58,8.0,NNE,12.7,17.3,N/A,,Overcast,20,2014-01-10 17:56:00
9:16 AM,-5.8,-14.8,65,29.58,8.0,NE,11.5,-,N/A,,Overcast,40,2014-01-10 18:16:00
9:36 AM,-5.8,-14.8,65,29.58,9.0,North,12.7,-,N/A,,Overcast,10,2014-01-10 18:36:00
9:56 AM,-5.8,-14.8,65,29.58,8.0,NNE,12.7,18.4,N/A,,Overcast,30,2014-01-10 18:56:00
10:16 AM,-4.0,-14.8,60,29.58,7.0,NNE,11.5,-,N/A,,Overcast,30,2014-01-10 19:16:00
10:36 AM,-4.0,-14.8,60,29.58,8.0,NE,13.8,21.9,N/A,,Overcast,40,2014-01-10 19:36:00
10:56 AM,-4.0,-14.8,60,29.58,10.0,NE,13.8,18.4,N/A,,Overcast,40,2014-01-10 19:56:00
11:16 AM,-4.0,-14.8,60,29.59,10.0,NE,10.4,-,N/A,,Overcast,40,2014-01-10 20:16:00
11:36 AM,-4.0,-14.8,60,29.59,8.0,NE,10.4,16.1,N/A,,Overcast,40,2014-01-10 20:36:00
11:56 AM,-4.0,-14.8,60,29.58,6.0,NE,11.5,18.4,N/A,,Overcast,40,2014-01-10 20:56:00
12:16 PM,-4.0,-14.8,60,29.58,4.0,ENE,17.3,21.9,N/A,,Overcast,60,2014-01-10 21:16:00
12:36 PM,-4.0,-14.8,60,29.58,5.0,ENE,12.7,20.7,N/A,,Overcast,60,2014-01-10 21:36:00
12:56 PM,-5.8,-14.8,65,29.58,7.0,NE,13.8,19.6,N/A,,Overcast,50,2014-01-10 21:56:00
1:16 PM,-5.8,-14.8,65,29.58,6.0,NE,15.0,19.6,N/A,,Overcast,40,2014-01-10 22:16:00
1:36 PM,-5.8,-16.6,60,29.58,5.0,NNE,12.7,-,N/A,,Overcast,30,2014-01-10 22:36:00
1:56 PM,-5.8,-16.6,60,29.58,5.0,NNE,12.7,-,N/A,,Overcast,30,2014-01-10 22:56:00
2:16 PM,-5.8,-16.6,60,29.58,5.0,NE,12.7,-,N/A,,Overcast,40,2014-01-10 23:16:00
2:36 PM,-5.8,-14.8,65,29.58,6.0,NNE,11.5,-,N/A,,Overcast,30,2014-01-10 23:36:00
2:56 PM,-5.8,-14.8,65,29.58,2.5,NNE,10.4,-,N/A,,Overcast,20,2014-01-10 23:56:00
3:16 PM,-5.8,-14.8,65,29.57,1.2,NE,15.0,-,N/A,,Overcast,50,2014-01-11 00:16:00
3:36 PM,-4.0,-14.8,60,29.58,0.8,NE,13.8,-,N/A,,Overcast,40,2014-01-11 00:36:00
3:56 PM,-4.0,-14.8,60,29.57,1.5,NE,13.8,17.3,N/A,,Overcast,40,2014-01-11 00:56:00
4:16 PM,-5.8,-14.8,65,29.57,1.8,NNE,11.5,-,N/A,,Overcast,30,2014-01-11 01:16:00
4:36 PM,-4.0,-14.8,60,29.56,2.5,NNE,11.5,-,N/A,,Overcast,30,2014-01-11 01:36:00
4:56 PM,-5.8,-14.8,65,29.56,3.0,NNE,10.4,-,N/A,,Overcast,30,2014-01-11 01:56:00
5:16 PM,-5.8,-14.8,65,29.56,2.5,NNE,10.4,-,N/A,,Overcast,20,2014-01-11 02:16:00
5:36 PM,-5.8,-16.6,60,29.56,2.0,NNE,11.5,-,N/A,,Overcast,30,2014-01-11 02:36:00
5:56 PM,-5.8,-16.6,60,29.56,2.0,NNE,10.4,16.1,N/A,,Overcast,30,2014-01-11 02:56:00
6:16 PM,-5.8,-16.6,60,29.56,2.5,NNE,8.1,-,N/A,,Overcast,30,2014-01-11 03:16:00
6:36 PM,-5.8,-16.6,60,29.55,3.0,NE,11.5,-,N/A,,Overcast,50,2014-01-11 03:36:00
6:56 PM,-5.8,-16.6,60,29.55,3.0,ENE,10.4,-,N/A,,Overcast,60,2014-01-11 03:56:00
7:16 PM,-7.6,-16.6,65,29.55,4.0,NE,8.1,-,N/A,,Overcast,50,2014-01-11 04:16:00
7:36 PM,-7.6,-18.4,59,29.54,6.0,NE,11.5,-,N/A,,Overcast,50,2014-01-11 04:36:00
7:56 PM,-7.6,-18.4,59,29.54,8.0,ENE,9.2,-,N/A,,Overcast,70,2014-01-11 04:56:00
8:16 PM,-7.6,-18.4,59,29.54,7.0,ENE,12.7,-,N/A,,Overcast,70,2014-01-11 05:16:00
8:36 PM,-7.6,-18.4,59,29.54,8.0,ENE,12.7,-,N/A,,Overcast,60,2014-01-11 05:36:00
8:56 PM,-9.4,-20.2,59,29.53,10.0,NE,12.7,18.4,N/A,,Overcast,50,2014-01-11 05:56:00
9:16 PM,-9.4,-18.4,65,29.53,10.0,NE,10.4,-,N/A,,Mostly Cloudy,50,2014-01-11 06:16:00
9:36 PM,-9.4,-22.0,54,29.53,10.0,ENE,11.5,-,N/A,,Partly Cloudy,70,2014-01-11 06:36:00
9:56 PM,-9.4,-20.2,59,29.52,10.0,NE,12.7,-,N/A,,Clear,50,2014-01-11 06:56:00
10:16 PM,-11.2,-22.0,59,29.52,10.0,ENE,11.5,-,N/A,,Clear,60,2014-01-11 07:16:00
10:36 PM,-11.2,-23.8,54,29.51,10.0,NE,9.2,-,N/A,,Clear,50,2014-01-11 07:36:00
10:56 PM,-11.2,-23.8,54,29.50,10.0,NE,6.9,-,N/A,,Clear,50,2014-01-11 07:56:00
11:16 PM,-11.2,-20.2,64,29.49,10.0,ENE,11.5,-,N/A,,Clear,70,2014-01-11 08:16:00
11:36 PM,-11.2,-23.8,54,29.49,10.0,ENE,9.2,-,N/A,,Clear,70,2014-01-11 08:36:00
11:56 PM,-11.2,-23.8,54,29.49,10.0,ENE,9.2,-,N/A,,Clear,70,2014-01-11 08:56:00